Mpanda Airport

Jump to: basic info | weather | comments

Related pages: nearby airports | nearby navaids | notams | map

Basic information (top)

Codes: HTMP
Location: lon -6.350000, lat 31.083000, elev 3,520 ft / 1,073 m msl
Status: small_airport

Weather (top)

Current conditions for Sumbawanga Airport 103nm (191km) SSE (rec'd 2015/01/29 11:00Z):

HTSU 291100Z 22011KT 9999 SCT020 FEW022CB BKN220 25/16 Q1021

Airport forecast for Julius Nyerere International Airport 485nm (899km) E (rec'd 2015/01/29 06:54Z):

TAF HTDA 290430Z 2906/3012 02015KT 9999 SCT024 FM 290800 VRB15KT BKN027 
      BECMG 2915/2918 04015KT SCT025 BKN080 
      BECMG 2921/2924 03010KT FEW023 
      BECMG 3005/3009 02015KT 9999 BKN026

Latest comments (top)

re: Uwanja wa ndege Mpanda: Thanks God Mpanda is on the right path, ... [read]

Uwanja wa ndege Mpanda: Uwanja ni mzuri saana, [read]

matengenezo: uwanja ukikamilika utakuwa mzuri.mmejitahidi. [read]

More... (top)

See also NOTAMs and nearby airports and navaids, or visit the Mpanda Airport page at the main OurAirports website..